W4SNA-3 Weather Reports


Display with metric or nautical units.
time (UTC)temp
F
wind
direction
speed
MPH
gust
MPH
rain 1hr
in
rain 24hr
in
rain mn
in
humidity
%
barometer
mb
20260504210121 69 0 0.0 6.0 0.00 0.00 0.00 50 1012.5
20260504205622 69 0 0.0 6.0 0.00 0.00 0.00 46 1012.6
20260504205121 69 0 0.0 2.0 0.00 0.00 0.00 51 1012.6
20260504204621 69 0 0.0 4.0 0.00 0.00 0.00 52 1012.7
20260504204123 69 0 0.0 4.0 0.00 0.00 0.00 49 1012.7
20260504203621 69 0 0.0 5.0 0.00 0.00 0.00 51 1012.7
20260504203121 69 35 1.0 5.0 0.00 0.00 0.00 50 1012.7
20260504202621 68 0 0.0 1.0 0.00 0.00 0.00 53 1012.8
20260504202121 68 0 0.0 1.0 0.00 0.00 0.00 55 1012.9
20260504201621 68 0 0.0 1.0 0.00 0.00 0.00 54 1012.8
20260504201121 68 0 0.0 3.0 0.00 0.00 0.00 53 1013.0
20260504200621 68 0 0.0 3.0 0.00 0.00 0.00 52 1013.0
20260504200121 68 0 0.0 4.0 0.00 0.00 0.00 54 1013.0
20260504195621 69 0 0.0 4.0 0.00 0.00 0.00 56 1013.1
20260504195121 69 0 0.0 3.0 0.00 0.00 0.00 53 1013.2
20260504194621 69 0 0.0 4.0 0.00 0.00 0.00 54 1013.2
20260504194136 69 0 0.0 4.0 0.00 0.00 0.00 53 1013.2
20260504193621 70 0 0.0 3.0 0.00 0.00 0.00 52 1013.2
20260504193121 70 0 0.0 4.0 0.00 0.00 0.00 50 1013.3
20260504192621 70 0 0.0 6.0 0.00 0.00 0.00 51 1013.4
20260504192121 70 0 0.0 6.0 0.00 0.00 0.00 52 1013.6
20260504191621 70 0 0.0 5.0 0.00 0.00 0.00 53 1013.6
20260504191121 69 0 0.0 5.0 0.00 0.00 0.00 53 1013.6
20260504190621 69 274 1.0 5.0 0.00 0.00 0.00 51 1013.9
20260504190122 68 0 0.0 3.0 0.00 0.00 0.00 54 1013.9
20260504185621 68 0 0.0 5.0 0.00 0.00 0.00 53 1013.8
20260504185121 68 0 0.0 5.0 0.00 0.00 0.00 54 1014.0
20260504184621 68 0 0.0 5.0 0.00 0.00 0.00 50 1014.0
20260504184137 68 0 0.0 2.0 0.00 0.00 0.00 49 1014.0
20260504183636 68 0 0.0 2.0 0.00 0.00 0.00 53 1014.0
20260504183121 68 0 0.0 1.0 0.00 0.00 0.00 55 1014.1
20260504182028 68 0 0.0 4.0 0.00 0.00 0.00 55 1014.3
20260504181530 67 0 0.0 4.0 0.00 0.00 0.00 53 1014.3
20260504181028 67 0 0.0 4.0 0.00 0.00 0.00 52 1013.4
20260504180528 67 0 0.0 5.0 0.00 0.00 0.00 58 1013.5
20260504180028 67 0 0.0 5.0 0.00 0.00 0.00 54 1013.5
20260504175530 67 0 0.0 5.0 0.00 0.00 0.00 57 1013.6
20260504175028 67 0 0.0 5.0 0.00 0.00 0.00 54 1013.8
20260504174529 67 0 0.0 5.0 0.00 0.00 0.00 50 1013.7
20260504174028 67 0 0.0 5.0 0.00 0.00 0.00 56 1013.6
20260504173528 67 0 0.0 4.0 0.00 0.00 0.00 53 1013.7
20260504173028 68 58 1.0 6.0 0.00 0.00 0.00 51 1013.7
20260504172531 68 0 0.0 6.0 0.00 0.00 0.00 50 1013.8
20260504172028 68 0 0.0 3.0 0.00 0.00 0.00 52 1013.9
20260504171531 68 0 0.0 2.0 0.00 0.00 0.00 51 1013.8
20260504171028 67 0 0.0 3.0 0.00 0.00 0.00 50 1013.7
20260504170528 67 0 0.0 3.0 0.00 0.00 0.00 49 1013.8
20260504160241 61 0 0.0 4.0 0.00 0.00 0.00 59 1014.6
20260504150920 61 360 1.0 7.0 0.00 0.00 0.00 53 1014.7
20260504150258 62 0 0.0 7.0 0.00 0.00 0.00 50 1014.9
20260504141258 63 309 1.0 5.0 0.00 0.00 0.00 47 1015.5
20260504140758 62 293 1.0 3.0 0.00 0.00 0.00 47 1015.5
20260504130515 55 0 0.0 2.0 0.00 0.00 0.00 56 1014.5
20260504110550 46 0 0.0 2.0 0.00 0.00 0.00 66 1014.4
20260504100523 46 0 0.0 1.0 0.00 0.00 0.00 62 1014.3
20260504081523 45 0 0.0 1.0 0.00 0.00 0.00 63 1014.4
20260504081024 45 0 0.0 1.0 0.00 0.00 0.00 62 1014.5
20260504080523 45 0 0.0 1.0 0.00 0.00 0.00 62 1014.5
20260504070334 45 0 0.0 3.0 0.00 0.00 0.00 61 1014.6
20260504060219 47 208 1.0 4.0 0.00 0.00 0.00 53 1014.8
20260504050741 46 282 1.0 4.0 0.00 0.00 0.00 56 1014.1
20260504050219 46 314 2.0 4.0 0.00 0.00 0.00 56 1014.1
20260504045719 46 3 1.0 4.0 0.00 0.00 0.00 57 1014.1
20260504045219 47 322 2.0 4.0 0.00 0.00 0.00 55 1014.1
20260504044740 47 318 1.0 4.0 0.00 0.00 0.00 55 1014.1
20260504044222 47 316 1.0 6.0 0.00 0.00 0.00 54 1014.1
20260504043719 47 304 2.0 6.0 0.00 0.00 0.00 55 1014.1
20260504043227 47 255 2.0 4.0 0.00 0.00 0.00 54 1014.2
20260504042719 47 318 1.0 4.0 0.00 0.00 0.00 54 1014.2
20260504042219 48 316 1.0 4.0 0.00 0.00 0.00 54 1014.3
20260504041719 47 359 1.0 4.0 0.00 0.00 0.00 50 1014.1
20260504041219 47 0 0.0 4.0 0.00 0.00 0.00 52 1014.2
20260504040719 47 0 0.0 3.0 0.00 0.00 0.00 52 1014.2
20260504040219 47 0 0.0 5.0 0.00 0.00 0.00 50 1014.3
20260504035740 47 0 0.0 5.0 0.00 0.00 0.00 50 1014.4
20260504035236 47 0 0.0 4.0 0.00 0.00 0.00 48 1014.4
20260504034719 47 0 0.0 3.0 0.00 0.00 0.00 49 1014.5
20260504034219 47 0 0.0 3.0 0.00 0.00 0.00 50 1014.6
20260504033731 47 0 0.0 3.0 0.00 0.00 0.00 47 1014.6
20260504033219 47 0 0.0 3.0 0.00 0.00 0.00 47 1014.4
20260504032719 47 0 0.0 3.0 0.00 0.00 0.00 46 1014.4
20260504031945 47 0 0.0 5.0 0.00 0.00 0.00 47 1014.3
20260504031445 48 110 1.0 5.0 0.00 0.00 0.00 48 1014.3
20260504030958 48 0 0.0 3.0 0.00 0.00 0.00 46 1014.2
20260504030444 47 0 0.0 4.0 0.00 0.00 0.00 47 1014.4
20260504025945 47 123 1.0 4.0 0.00 0.00 0.00 47 1014.3
20260504025445 46 0 0.0 3.0 0.00 0.00 0.00 48 1014.3
20260504024959 46 0 0.0 2.0 0.00 0.00 0.00 49 1014.3
20260504024444 46 0 0.0 2.0 0.00 0.00 0.00 49 1014.4
20260504023624 45 0 0.0 3.0 0.00 0.00 0.00 50 1014.5
20260504023124 45 0 0.0 2.0 0.00 0.00 0.00 52 1014.5
20260504022624 46 0 0.0 2.0 0.00 0.00 0.00 52 1014.5
20260504022124 46 0 0.0 2.0 0.00 0.00 0.00 49 1014.6
20260504021624 46 0 0.0 2.0 0.00 0.00 0.00 48 1014.3
20260504021124 45 0 0.0 2.0 0.00 0.00 0.00 49 1014.2
20260504020624 45 0 0.0 2.0 0.00 0.00 0.00 50 1014.3
20260504020138 46 0 0.0 2.0 0.00 0.00 0.00 51 1014.3
20260504015624 46 0 0.0 2.0 0.00 0.00 0.00 53 1014.2
20260504014711 46 252 1.0 3.0 0.00 0.00 0.00 52 1014.3
20260504014213 46 252 1.0 3.0 0.00 0.00 0.00 51 1013.9
20260504013711 46 252 1.0 3.0 0.00 0.00 0.00 51 1013.8
20260504013211 46 252 1.0 2.0 0.00 0.00 0.00 51 1013.8
20260504012727 46 0 0.0 3.0 0.00 0.00 0.00 50 1013.8
20260504012211 47 251 1.0 3.0 0.00 0.00 0.00 51 1013.7
20260504011711 47 251 1.0 3.0 0.00 0.00 0.00 49 1013.7
20260504011211 47 251 1.0 3.0 0.00 0.00 0.00 49 1013.7
20260504010739 47 251 1.0 3.0 0.00 0.00 0.00 48 1013.6
20260504010211 47 251 1.0 3.0 0.00 0.00 0.00 49 1013.5
20260504005739 48 251 1.0 3.0 0.00 0.00 0.00 48 1013.5
20260504005238 48 251 1.0 3.0 0.00 0.00 0.00 48 1013.5
20260504004730 48 251 1.0 3.0 0.00 0.00 0.00 48 1013.4
20260504004211 48 251 1.0 3.0 0.00 0.00 0.00 46 1013.4
20260504003753 49 251 1.0 3.0 0.00 0.00 0.00 46 1013.5
20260504003211 49 0 0.0 3.0 0.00 0.00 0.00 46 1013.5
20260504002712 49 251 1.0 3.0 0.00 0.00 0.00 46 1013.4
20260504001813 50 251 1.0 3.0 0.00 0.00 0.00 45 1013.5
20260504001314 50 251 1.0 3.0 0.00 0.00 0.00 44 1013.5
20260504000813 51 242 1.0 3.0 0.00 0.00 0.00 44 1013.5
20260504000323 51 233 1.0 3.0 0.00 0.00 0.00 44 1013.5
20260503235814 51 201 1.0 3.0 0.00 0.00 0.00 44 1013.6
20260503235313 52 0 0.0 3.0 0.00 0.00 0.00 45 1013.6
20260503234813 52 0 0.0 3.0 0.00 0.00 0.00 43 1013.6
20260503234313 53 0 0.0 2.0 0.00 0.00 0.00 42 1013.5
20260503233813 53 0 0.0 3.0 0.00 0.00 0.00 40 1013.5
20260503233313 53 0 0.0 3.0 0.00 0.00 0.00 40 1013.3
20260503232813 53 0 0.0 1.0 0.00 0.00 0.00 37 1013.2
20260503231947 54 0 0.0 2.0 0.00 0.00 0.00 35 1013.2
20260503231444 54 0 0.0 3.0 0.00 0.00 0.00 36 1013.2
20260503230946 54 0 0.0 3.0 0.00 0.00 0.00 38 1013.2
20260503230447 54 0 0.0 3.0 0.00 0.00 0.00 37 1013.2
20260503225944 54 0 0.0 3.0 0.00 0.00 0.00 37 1013.2
20260503225444 55 0 0.0 3.0 0.00 0.00 0.00 36 1013.2
20260503224945 55 0 0.0 3.0 0.00 0.00 0.00 35 1013.2
20260503224445 55 343 1.0 4.0 0.00 0.00 0.00 35 1013.2
20260503223945 55 338 1.0 4.0 0.00 0.00 0.00 37 1013.3
20260503223445 55 0 0.0 3.0 0.00 0.00 0.00 35 1013.3
20260503222945 55 0 0.0 3.0 0.00 0.00 0.00 36 1013.3
20260503222445 55 0 0.0 3.0 0.00 0.00 0.00 34 1013.4
20260503221946 56 0 0.0 3.0 0.00 0.00 0.00 34 1013.3
20260503221444 56 0 0.0 3.0 0.00 0.00 0.00 34 1013.4
20260503220946 56 18 1.0 3.0 0.00 0.00 0.00 34 1013.4
20260503220445 56 0 0.0 3.0 0.00 0.00 0.00 33 1013.4
20260503220011 56 0 0.0 3.0 0.00 0.00 0.00 34 1013.4
20260503215445 56 0 0.0 3.0 0.00 0.00 0.00 34 1013.4
20260503214944 56 0 0.0 2.0 0.00 0.00 0.00 34 1013.5
20260503214445 57 0 0.0 4.0 0.00 0.00 0.00 35 1013.6
20260503213947 57 19 1.0 4.0 0.00 0.00 0.00 31 1013.6
20260503213445 57 0 0.0 2.0 0.00 0.00 0.00 34 1013.7
20260503212948 57 0 0.0 4.0 0.00 0.00 0.00 31 1013.7
20260503212444 58 0 0.0 6.0 0.00 0.00 0.00 33 1013.7
20260503211944 58 0 0.0 6.0 0.00 0.00 0.00 34 1013.7
20260503211444 58 0 0.0 3.0 0.00 0.00 0.00 35 1013.7
20260503210945 59 0 0.0 3.0 0.00 0.00 0.00 33 1013.8
20260503210446 59 0 0.0 3.0 0.00 0.00 0.00 31 1013.8